Location: Angwan Shehu
(11.2514°N, 7.4613°E)
Time: 04:48:54
(UTC+00:00)

Vanguard 3 - Pass Details

Date: 29 July 2021
Orbit: 510 x 3260 km, 33.3° (Epoch: 16 September)

Event Time Altitude Azimuth Distance (km) Brightness Sun altitude
Rises 19:31:05 0° 286° (WNW) 6,297 13.1 -22.5°
Reaches altitude 10° 19:35:36 10° 295° (WNW) 5,598 12.5 -23.5°
Maximum altitude 19:51:43 36° 356° (N) 4,402 11.0 -27.0°
Drops below altitude 10° 20:08:39 10° 57° (ENE) 5,856 11.2 -30.7°
Enters shadow 20:13:28 - 66° (ENE) 6,591 11.5 -31.7°
